TimeBST,TemperatureF,Dew PointF,Humidity,Sea Level PressureIn,VisibilityMPH,Wind Direction,Wind SpeedMPH,Gust SpeedMPH,PrecipitationIn,Events,Conditions,WindDirDegrees,DateUTC
12:50 AM,54,54,99,,,West,10.4,,,,,280,2012-10-11 23:50:00
3:50 AM,52,49,86,,,WNW,21.9,,,,,300,2012-10-12 02:50:00
6:20 AM,51.8,48.2,88,29.53,5.6,WNW,23.0,-,N/A,,Light Drizzle,290,2012-10-12 05:20:00
6:50 AM,51,46,77,,,West,25.3,,,,,280,2012-10-12 05:50:00
6:50 AM,51.8,48.2,88,29.53,5.6,WNW,25.3,-,N/A,,Mostly Cloudy,290,2012-10-12 05:50:00
7:20 AM,51.8,46.4,82,29.56,6.2,WNW,23.0,-,N/A,,Mostly Cloudy,290,2012-10-12 06:20:00
8:20 AM,51.8,44.6,76,29.56,6.2,WNW,24.2,-,N/A,,Scattered Clouds,290,2012-10-12 07:20:00
8:50 AM,51.8,44.6,76,29.59,6.2,WNW,25.3,-,N/A,,Scattered Clouds,290,2012-10-12 07:50:00
9:20 AM,51.8,44.6,76,29.59,6.2,WNW,25.3,-,N/A,,Scattered Clouds,290,2012-10-12 08:20:00
9:50 AM,51,41,59,,,West,25.3,,,,,280,2012-10-12 08:50:00
9:50 AM,51.8,42.8,71,29.59,6.2,WNW,24.2,-,N/A,,Partly Cloudy,290,2012-10-12 08:50:00
10:20 AM,51.8,41.0,67,29.62,6.2,WNW,25.3,-,N/A,,Partly Cloudy,290,2012-10-12 09:20:00
10:50 AM,51.8,41.0,67,29.62,6.2,WNW,25.3,-,N/A,,Partly Cloudy,290,2012-10-12 09:50:00
11:20 AM,53.6,41.0,62,29.62,6.2,WNW,23.0,-,N/A,,Scattered Clouds,290,2012-10-12 10:20:00
11:50 AM,53.6,41.0,62,29.62,6.2,WNW,21.9,-,N/A,,Scattered Clouds,290,2012-10-12 10:50:00
12:20 PM,53.6,39.2,58,29.62,6.2,WNW,21.9,-,N/A,,Scattered Clouds,290,2012-10-12 11:20:00
12:50 PM,53,43,59,,,West,21.9,,,,,270,2012-10-12 11:50:00
12:50 PM,53.6,42.8,67,29.62,6.2,West,21.9,-,N/A,,Scattered Clouds,280,2012-10-12 11:50:00
1:20 PM,53.6,44.6,72,29.65,6.2,West,20.7,-,N/A,,Scattered Clouds,270,2012-10-12 12:20:00
1:50 PM,51.8,42.8,71,29.65,6.2,West,21.9,-,N/A,Rain,Light Rain Showers,270,2012-10-12 12:50:00
2:20 PM,53.6,42.8,67,29.65,6.2,West,23.0,-,N/A,,Scattered Clouds,270,2012-10-12 13:20:00
3:50 PM,52,42,58,,,West,24.2,,,,,260,2012-10-12 14:50:00
3:50 PM,53.6,42.8,67,29.65,6.2,West,24.2,-,N/A,,Scattered Clouds,260,2012-10-12 14:50:00
4:20 PM,53.6,42.8,67,29.65,6.2,West,21.9,-,N/A,,Scattered Clouds,270,2012-10-12 15:20:00
4:50 PM,51.8,42.8,71,29.65,6.2,West,21.9,-,N/A,,Scattered Clouds,270,2012-10-12 15:50:00
5:20 PM,53.6,42.8,67,29.65,6.2,West,20.7,-,N/A,,Scattered Clouds,270,2012-10-12 16:20:00
5:50 PM,51.8,42.8,71,29.65,6.2,West,21.9,-,N/A,,Scattered Clouds,260,2012-10-12 16:50:00
6:50 PM,51,40,57,,,West,19.6,,,,,260,2012-10-12 17:50:00
6:50 PM,51.8,41.0,67,29.65,6.2,West,19.6,-,N/A,,Scattered Clouds,260,2012-10-12 17:50:00
7:50 PM,51.8,42.8,71,29.65,6.2,WSW,17.3,-,N/A,,Scattered Clouds,240,2012-10-12 18:50:00
8:20 PM,50.0,42.8,76,29.65,6.2,WSW,16.1,-,N/A,,Scattered Clouds,250,2012-10-12 19:20:00
8:50 PM,50.0,42.8,76,29.65,6.2,WSW,20.7,32.2,N/A,Rain,Light Rain Showers,250,2012-10-12 19:50:00
9:50 PM,50,41,61,,,WSW,11.5,,,,,250,2012-10-12 20:50:00